This is the latest recevied weather packets stored in our database for station/object VK7TM-1. If no packets are shown the sender has not sent any weather packets the latest 1 day(s).
| Time | Temp. | Humidity | Pressure | Rain* | Wind** | Luminosity | Snow |
|---|---|---|---|---|---|---|---|
| 1778050181 | 10° C | 90% | 1008.9 hPa | 0 mm | - | 7 W/m² | - |
| 1778049891 | 10.56° C | 90% | 1009 hPa | 0 mm | - | 10 W/m² | - |
| 1778049311 | 10.56° C | 92% | 1009.2 hPa | 0 mm | - | 15 W/m² | - |
| 1778049021 | 11.11° C | 92% | 1009.2 hPa | 0 mm | - | 18 W/m² | - |
| 1778048731 | 11.11° C | 92% | 1009 hPa | 0 mm | - | 19 W/m² | - |
| 1778048441 | 11.67° C | 92% | 1009 hPa | 0 mm | - | 25 W/m² | - |
| 1778048151 | 11.67° C | 93% | 1009.2 hPa | 0 mm | - | 44 W/m² | - |
| 1778047861 | 11.67° C | 93% | 1009.1 hPa | 0 mm | - | 54 W/m² | - |
| 1778047571 | 11.67° C | 93% | 1009.1 hPa | 0 mm | - | 52 W/m² | - |
| 1778047281 | 12.22° C | 93% | 1009.2 hPa | 0 mm | - | 24 W/m² | - |
| 1778046991 | 12.22° C | 93% | 1009.2 hPa | 0 mm | - | 33 W/m² | - |
| 1778046701 | 12.22° C | 92% | 1009.4 hPa | 0 mm | - | 63 W/m² | - |
| 1778046411 | 12.22° C | 91% | 1009.3 hPa | 0 mm | - | 119 W/m² | - |
| 1778046121 | 12.78° C | 89% | 1009.3 hPa | 0 mm | - | 81 W/m² | - |
| 1778045831 | 13.33° C | 85% | 1009.3 hPa | 0 mm | - | 17 W/m² | - |
| 1778045541 | 13.33° C | 82% | 1009.3 hPa | 0 mm | - | 21 W/m² | - |
| 1778045251 | 13.89° C | 81% | 1009.7 hPa | 0 mm | - | 38 W/m² | - |
| 1778044978 | 13.89° C | 80% | 1009.5 hPa | 0 mm | - | 74 W/m² | - |
| 1778044671 | 13.89° C | 81% | 1009.7 hPa | 0 mm | - | 71 W/m² | - |
| 1778044381 | 13.89° C | 81% | 1009.8 hPa | 0 mm | - | 121 W/m² | - |
| 1778044161 | 13.89° C | 82% | 1009.8 hPa | 0 mm | - | 65 W/m² | - |
| 1778043801 | 13.89° C | 82% | 1010 hPa | 0 mm | - | 151 W/m² | - |
| 1778043511 | 13.89° C | 80% | 1010 hPa | 0 mm | - | 51 W/m² | - |
| 1778043221 | 14.44° C | 79% | 1009.9 hPa | 0 mm | - | 61 W/m² | - |
| 1778042931 | 14.44° C | 77% | 1010.2 hPa | 0 mm | - | 160 W/m² | - |
* Rain latest hour (hover to see other rain measurements)
** Current wind speed in m/s (hover to see current wind gust speed)